Location: Drummondville
(45.8830°N, 72.4830°W)
Time: 08:08:02
(UTC-04:00)

Vanguard 2 Rocket - Visible Passes

Search period start: 18 July 2018 00:00
Search period end: 28 July 2018 00:00
Orbit: 554 x 3327 km, 32.9° (Epoch: 17 July)

Date Brightness Start Highest point End Pass type
(mag) Time Alt. Az. Time Alt. Az. Time Alt. Az.
18 Jul 8.7 03:54:26 14° SSW 03:59:37 29° SSE 04:09:02 10° ESE visible
19 Jul 8.6 02:58:17 18° S 03:00:29 20° SSE 03:06:53 10° ESE visible
20 Jul 9.1 02:02:08 11° SE 02:02:08 11° SE 02:03:56 10° ESE visible
20 Jul 8.6 04:07:57 13° SW 04:13:20 33° SSE 04:23:01 10° ESE visible
21 Jul 8.3 03:11:48 21° S 03:14:06 25° SSE 03:21:14 10° ESE visible
22 Jul 8.7 02:15:42 16° SE 02:15:42 16° SE 02:19:25 10° ESE visible
22 Jul 8.5 04:21:31 11° SW 04:27:13 34° S 04:36:49 10° ESE visible
23 Jul 8.1 03:25:25 22° SSW 03:27:53 27° SSE 03:35:18 10° ESE visible
24 Jul 8.4 02:29:22 20° SSE 02:29:22 20° SSE 02:33:57 10° ESE visible
24 Jul 8.5 04:35:26 10° WSW 04:41:12 32° S 04:50:24 10° ESE visible
25 Jul 8.0 03:39:10 21° SSW 03:41:49 28° S 03:49:08 10° ESE visible
26 Jul 8.1 02:43:11 22° SSE 02:43:11 22° SSE 02:48:06 10° ESE visible
26 Jul 8.6 04:49:47 10° WSW 04:55:15 28° S 05:03:40 10° SE visible
27 Jul 8.0 03:53:05 19° SW 03:55:51 26° S 04:02:43 10° SE visible
